Home > Weather > Hyderabad > Past weeks

Flag for India Past Weather in Hyderabad, Telangana, India — Yesterday and Last 2 Weeks

Now
70 °F

Fog.


Feels Like: 70 °F
Forecast: 73 / 84 °F
Wind: No wind

Location: Hyderabad Airport

Current Time: Jul 27, 2016 at 6:42:05 AM

Latest Report: Jul 27, 2016 at 6:00 AM


Visibility: 2 mi

Pressure: 29.83 "Hg (28.12 "Hg at 507m altitude)

Humidity: 88%

Dew Point: 66 °F

Location of HyderabadLocation

Past Weather in Hyderabad — Graph

°F

Hyderabad Temperature Yesterday

Maximum temperature yesterday: 90 °F (at 2:30 PM)
Minimum temperature yesterday: 72 °F (at 5:30 PM)
Average temperature yesterday: 78 °F

High & Low Weather Summary for the Past Weeks

 TemperatureHumidityPressure
High90 °F (Jul 15, 2:30 PM)100% (Jul 26, 8:30 AM)29.92 "Hg (Jul 26, 8:30 AM)
Low68 °F (Jul 20, 6:00 AM)34% (Jul 19, 4:30 PM)29.68 "Hg (Jul 12, 4:00 PM)
Average78 °F69%29.79 "Hg
* Reported Jul 11 9:30 PM — Jul 26 9:30 PM, Hyderabad, Weather by CustomWeather, © 2016

Note: Actual official high and low records may vary slightly from our data, if they occured in-between our weather recording intervals... More about our weather records

Advertising

Hyderabad Weather History for the Previous 24 Hours

Scroll right to see more
 ConditionsComfort  
Time TempWeatherWind HumidityBarometerVisibility
9:30 PM
Tue, Jul 26
72 °FPartly cloudy.3 mph88%29.83 "Hg2 mi
9:00 PM72 °FPartly cloudy.3 mph88%29.83 "Hg2 mi
8:30 PM72 °FPartly cloudy.3 mph88%29.83 "Hg2 mi
8:00 PM73 °FPartly cloudy.3 mph83%29.83 "Hg2 mi
7:00 PM73 °FDrizzle. Broken clouds.5 mph83%29.77 "Hg2 mi
6:30 PM72 °FDrizzle. Broken clouds.3 mph88%29.77 "Hg2 mi
6:00 PM72 °FFog.2 mph83%29.77 "Hg2 mi
5:30 PM72 °FThunderstorms. Broken clouds.3 mph83%29.74 "Hg1 mi
5:00 PM73 °FThunderstorms. Broken clouds.3 mph78%29.74 "Hg1 mi
4:40 PM77 °FThunderstorms. Scattered clouds.3 mph69%29.77 "Hg1 mi
4:20 PM81 °FThunderstorms. Scattered clouds.5 mph66%29.74 "Hg2 mi
3:30 PM90 °FScattered clouds.5 mph52%29.74 "Hg3 mi
3:00 PM90 °FScattered clouds.2 mph55%29.74 "Hg3 mi
2:30 PM90 °FScattered clouds.2 mph55%29.74 "Hg3 mi
2:00 PM88 °FScattered clouds.3 mph59%29.74 "Hg3 mi
1:30 PM88 °FBroken clouds.3 mph59%29.77 "Hg3 mi
1:00 PM88 °FBroken clouds.3 mph62%29.77 "Hg3 mi
12:00 PM84 °FBroken clouds.3 mph66%29.80 "Hg3 mi
11:00 AM81 °FFog.No wind79%29.83 "Hg2 mi
10:30 AM79 °FFog.No wind84%29.83 "Hg2 mi
10:00 AM77 °FFog.No wind89%29.83 "Hg2 mi
9:30 AM75 °FFog.No wind94%29.83 "Hg2 mi
8:30 AM73 °FLight rain. More clouds than sun.No wind100%29.83 "Hg2 mi
7:30 AM73 °FHeavy rain. More clouds than sun.No wind94%29.83 "Hg1 mi
7:00 AM73 °FHeavy rain. More clouds than sun.No wind94%29.80 "Hg1 mi
6:30 AM75 °FRain. More clouds than sun.No wind89%29.80 "Hg1 mi
Weather by CustomWeather, © 2016

See weather overviewHow to use our weather pages